This demonstration page uses our WeatherBlox Daily Observations layout. Learn more.

Left ArrowRight Arrow

Hourly Observations for May 22, 2021

Temp ( °F °C ) Dew Point ( °F °C ) Humidity (%) Winds ( mph kmh ) Pressure ( in mb ) Visibility ( mi km ) Precip ( " mm )
12:52 am 00:52 Cloudy 71 21.7 65 18.3 81 81 S 18 30 30.15 1021 10 16 0.00 0.00
1:52 am 01:52 Cloudy 69 20.6 64 17.8 84 84 SSE 16 26 30.16 1022 10 16 0.00 0.00
2:52 am 02:52 Cloudy 69 20.6 64 17.8 84 84 SSE 12 19 30.17 1022 10 16 0.00 0.00
3:52 am 03:52 Cloudy 69 20.6 65 18.3 87 87 SSE 12 19 30.19 1022 10 16 0.00 0.00
4:44 am 04:44 Cloudy 68 20 66 18.9 93 93 SSE 12 19 30.18 1022 10 16 0.00 0.00
4:52 am 04:52 Cloudy 68 20 66 18.9 93 93 SSE 10 17 30.19 1022 10 16 0.00 0.00
5:19 am 05:19 Cloudy 68 20 66 18.9 93 93 SSE 9 15 30.18 1022 10 16 0.00 0.00
5:52 am 05:52 Cloudy 69 20.6 66 18.9 90 90 S 10 17 30.19 1022 10 16 0.00 0.00
6:52 am 06:52 Cloudy 69 20.6 66 18.9 90 90 SSE 13 20 30.20 1023 10 16 0.00 0.00
7:22 am 07:22 Cloudy 69 20.6 66 18.9 90 90 SSE 10 17 30.20 1023 10 16 0.00 0.00
7:52 am 07:52 Cloudy 69 20.6 67 19.4 93 93 SE 12 19 30.21 1023 10 16 0.00 0.00
8:44 am 08:44 Mostly Cloudy 72 22.2 67 19.4 84 84 SSE 14 22 30.20 1023 10 16 0.00 0.00
8:52 am 08:52 Mostly Cloudy 71 21.7 66 18.9 84 84 S 10 17 30.22 1023 10 16 0.00 0.00
9:52 am 09:52 Mostly Cloudy 73 22.8 67 19.4 81 81 S 9 15 30.22 1024 10 16 0.00 0.00
10:24 am 10:24 Mostly Cloudy 74 23.3 67 19.4 79 79 SSE 12 19 30.20 1023 10 16 0.00 0.00
10:52 am 10:52 Mostly Cloudy 73 22.8 68 20 84 84 SSE 13 20 30.22 1023 10 16 0.00 0.00
11:52 am 11:52 Mostly Cloudy 75 23.9 68 20 79 79 SSE 13 20 30.21 1023 10 16 0.00 0.00
12:52 pm 12:52 Mostly Cloudy 76 24.4 68 20 77 77 S 6 9 30.20 1023 10 16 0.00 0.00
1:17 pm 13:17 Mostly Cloudy 79 26.1 68 20 69 69 S 8 13 30.16 1021 10 16 0.00 0.00
1:52 pm 13:52 Mostly Cloudy 78 25.6 67 19.4 69 69 S 9 15 30.18 1022 10 16 0.00 0.00
2:52 pm 14:52 Mostly Cloudy 80 26.7 68 20 67 67 S 17 28 30.17 1022 10 16 0.00 0.00
3:52 pm 15:52 Mostly Cloudy 81 27.2 68 20 65 65 SSE 14 22 30.16 1021 10 16 0.00 0.00
4:52 pm 16:52 Mostly Cloudy 80 26.7 69 20.6 69 69 SSE 15 24 30.14 1021 10 16 0.00 0.00
5:52 pm 17:52 Mostly Cloudy 78 25.6 69 20.6 74 74 S 16 26 30.14 1021 10 16 0.00 0.00
6:52 pm 18:52 Mostly Cloudy 75 23.9 68 20 79 79 SSE 21 33 30.13 1020 10 16 0.00 0.00
7:52 pm 19:52 Mostly Cloudy 74 23.3 67 19.4 79 79 SSE 16 26 30.14 1021 10 16 0.00 0.00
8:52 pm 20:52 Mostly Cloudy 73 22.8 66 18.9 79 79 S 13 20 30.15 1021 10 16 0.00 0.00
9:52 pm 21:52 Mostly Cloudy 71 21.7 66 18.9 84 84 S 15 24 30.17 1022 10 16 0.00 0.00
10:52 pm 22:52 Mostly Cloudy 70 21.1 65 18.3 84 84 SSE 15 24 30.18 1022 10 16 0.00 0.00
11:52 pm 23:52 Partly Cloudy 69 20.6 64 17.8 84 84 SSE 15 24 30.17 1022 10 16 0.00 0.00

Powered by AerisWeather